When you browse on this site, cookies collect data to enhance your experience and personalize the content and advertising you see.
Visit our Privacy Policy to learn more. By continuing to use the site, you agree to this use of cookies and data.
  • In Czech Republic
  • List of Countries
  • For 7 days
  • Water Temperature
  • Satellite Maps
  • Weather Map
  • Weather Widgets
  • user-avatar
    Login

    Hourly Weather Harbin

    Today, 26 March, Tuesday

    Time Temperature Precipitation Wind Pressure Humidity
    00:00 -4°C° 0 mm 5 mps 746 mmHg 41%
    01:00 -3°C° 0 mm 4 mps 747 mmHg 47%
    02:00 -3°C° 0 mm 4 mps 747 mmHg 53%
    03:00 -4°C° 0 mm 4 mps 747 mmHg 56%
    04:00 -4°C° 0 mm 4 mps 748 mmHg 59%
    05:00 -4°C° 0 mm 4 mps 748 mmHg 61%
    06:00 -4°C° 0 mm 4 mps 749 mmHg 57%
    07:00 -3°C° 0 mm 4 mps 749 mmHg 53%
    08:00 -3°C° 0 mm 4 mps 750 mmHg 48%
    09:00 -2°C° 0 mm 4 mps 750 mmHg 43%
    10:00 -1°C° 0 mm 5 mps 750 mmHg 38%
    11:00 0°C° 0 mm 5 mps 750 mmHg 32%
    12:00 0°C° 0 mm 5 mps 750 mmHg 33%
    13:00 +1°C° 0 mm 5 mps 750 mmHg 34%
    14:00 +1°C° 0 mm 6 mps 750 mmHg 35%
    15:00 0°C° 0 mm 5 mps 750 mmHg 34%
    16:00 0°C° 0 mm 5 mps 749 mmHg 34%
    17:00 0°C° 0 mm 4 mps 749 mmHg 33%
    18:00 0°C° 0 mm 3 mps 750 mmHg 34%
    19:00 -1°C° 0 mm 3 mps 750 mmHg 36%
    20:00 -1°C° 0 mm 2 mps 750 mmHg 37%
    21:00 -2°C° 0 mm 2 mps 750 mmHg 37%
    22:00 -2°C° 0 mm 2 mps 751 mmHg 38%
    23:00 -2°C° 0 mm 2 mps 751 mmHg 39%

    Tomorrow, 27 March, Wednesday

    Time Temperature Precipitation Wind Pressure Humidity
    00:00 -2°C° 0 mm 2 mps 751 mmHg 39%
    01:00 -2°C° 0 mm 2 mps 751 mmHg 40%
    02:00 -2°C° 0 mm 2 mps 751 mmHg 41%
    03:00 -2°C° 0 mm 2 mps 751 mmHg 42%
    04:00 -3°C° 0 mm 2 mps 750 mmHg 42%
    05:00 -4°C° 0 mm 3 mps 750 mmHg 42%
    06:00 -2°C° 0 mm 3 mps 751 mmHg 39%
    07:00 -3°C° 0 mm 4 mps 751 mmHg 36%
    08:00 -3°C° 0 mm 4 mps 751 mmHg 33%
    09:00 -2°C° 0 mm 5 mps 751 mmHg 30%
    10:00 -1°C° 0 mm 5 mps 751 mmHg 28%
    11:00 0°C° 0 mm 5 mps 751 mmHg 25%
    12:00 0°C° 0 mm 5 mps 750 mmHg 25%
    13:00 0°C° 0 mm 5 mps 750 mmHg 25%
    14:00 +1°C° 0 mm 5 mps 749 mmHg 24%
    15:00 +1°C° 0 mm 5 mps 749 mmHg 25%
    16:00 0°C° 0 mm 5 mps 749 mmHg 25%
    17:00 0°C° 0 mm 5 mps 749 mmHg 26%
    18:00 -1°C° 0 mm 4 mps 749 mmHg 28%
    19:00 -1°C° 0 mm 3 mps 749 mmHg 31%
    20:00 -2°C° 0 mm 2 mps 749 mmHg 34%
    21:00 -2°C° 0 mm 2 mps 749 mmHg 34%
    22:00 -2°C° 0 mm 2 mps 749 mmHg 34%
    23:00 -2°C° 0 mm 2 mps 749 mmHg 35%

    Day after tomorrow, 28 March, Thursday

    Time Temperature Precipitation Wind Pressure Humidity
    00:00 -2°C° 0 mm 2 mps 749 mmHg 36%
    01:00 0°C° 0 mm 1 mps 748 mmHg 36%
    02:00 -1°C° 0 mm 1 mps 748 mmHg 37%
    03:00 -1°C° 0 mm 1 mps 748 mmHg 37%
    04:00 -1°C° 0 mm 1 mps 748 mmHg 38%
    05:00 -2°C° 0 mm 1 mps 748 mmHg 38%
    06:00 -3°C° 0 mm 2 mps 748 mmHg 35%
    07:00 -2°C° 0 mm 3 mps 748 mmHg 32%
    08:00 -2°C° 0 mm 4 mps 749 mmHg 29%
    09:00 -1°C° 0 mm 5 mps 749 mmHg 27%
    10:00 0°C° 0 mm 5 mps 748 mmHg 24%
    11:00 +1°C° 0 mm 5 mps 748 mmHg 22%
    12:00 +1°C° 0 mm 5 mps 748 mmHg 22%
    13:00 +1°C° 0 mm 5 mps 748 mmHg 22%
    14:00 +2°C° 0 mm 5 mps 747 mmHg 22%
    15:00 +1°C° 0 mm 5 mps 747 mmHg 22%
    16:00 +1°C° 0 mm 4 mps 747 mmHg 22%
    17:00 +2°C° 0 mm 3 mps 747 mmHg 23%
    18:00 +2°C° 0 mm 2 mps 747 mmHg 25%
    19:00 +2°C° 0 mm 1 mps 748 mmHg 28%
    20:00 0°C° 0 mm 0 mps 748 mmHg 30%
    21:00 +1°C° 0 mm 1 mps 748 mmHg 30%
    22:00 +1°C° 0 mm 1 mps 748 mmHg 30%
    23:00 -2°C° 0 mm 2 mps 748 mmHg 31%

    29 March, Friday

    Time Temperature Precipitation Wind Pressure Humidity
    00:00 -2°C° 0 mm 2 mps 748 mmHg 31%
    01:00 -2°C° 0 mm 2 mps 748 mmHg 31%
    02:00 -2°C° 0 mm 2 mps 748 mmHg 31%
    03:00 -2°C° 0 mm 2 mps 748 mmHg 32%
    04:00 -3°C° 0 mm 2 mps 747 mmHg 32%
    05:00 -3°C° 0 mm 2 mps 747 mmHg 33%
    06:00 -2°C° 0 mm 3 mps 748 mmHg 30%
    07:00 0°C° 0 mm 3 mps 748 mmHg 27%
    08:00 +1°C° 0 mm 3 mps 748 mmHg 24%
    09:00 +2°C° 0 mm 3 mps 748 mmHg 22%
    10:00 +3°C° 0 mm 3 mps 748 mmHg 19%
    11:00 +4°C° 0 mm 3 mps 748 mmHg 17%
    12:00 +4°C° 0 mm 3 mps 747 mmHg 17%
    13:00 +5°C° 0 mm 3 mps 747 mmHg 16%
    14:00 +5°C° 0 mm 3 mps 746 mmHg 16%
    15:00 +5°C° 0 mm 3 mps 746 mmHg 21%
    16:00 +4°C° 0 mm 3 mps 746 mmHg 25%
    17:00 +4°C° 0 mm 3 mps 746 mmHg 30%
    18:00 +3°C° 0 mm 3 mps 746 mmHg 39%
    19:00 +3°C° 0 mm 2 mps 747 mmHg 47%
    20:00 +2°C° 0 mm 2 mps 747 mmHg 56%
    21:00 +2°C° 0.1 mm 2 mps 747 mmHg 58%
    22:00 +1°C° 0.1 mm 2 mps 747 mmHg 61%
    23:00 +1°C° 0.1 mm 2 mps 747 mmHg 63%

    30 March, Saturday

    Time Temperature Precipitation Wind Pressure Humidity
    00:00 -1°C° 0.1 mm 2 mps 747 mmHg 69%
    01:00 -1°C° 0.1 mm 3 mps 747 mmHg 74%
    02:00 -3°C° 0.1 mm 4 mps 747 mmHg 79%
    03:00 -4°C° 0 mm 4 mps 747 mmHg 77%
    04:00 -5°C° 0 mm 5 mps 747 mmHg 75%
    05:00 -6°C° 0 mm 5 mps 747 mmHg 73%
    06:00 -6°C° 0 mm 5 mps 747 mmHg 68%
    07:00 -6°C° 0 mm 5 mps 748 mmHg 63%
    08:00 -6°C° 0 mm 5 mps 748 mmHg 59%
    09:00 -5°C° 0 mm 5 mps 748 mmHg 56%
    10:00 -4°C° 0 mm 6 mps 748 mmHg 54%
    11:00 -4°C° 0 mm 6 mps 748 mmHg 51%
    12:00 -2°C° 0.1 mm 5 mps 748 mmHg 51%
    13:00 -2°C° 0.1 mm 5 mps 747 mmHg 50%
    14:00 -2°C° 0.1 mm 5 mps 747 mmHg 49%
    15:00 -2°C° 0.1 mm 5 mps 747 mmHg 50%
    16:00 -3°C° 0.1 mm 6 mps 747 mmHg 51%
    17:00 -3°C° 0.1 mm 6 mps 747 mmHg 52%
    18:00 -4°C° 0.1 mm 5 mps 748 mmHg 57%
    19:00 -4°C° 0.1 mm 5 mps 748 mmHg 61%
    20:00 -5°C° 0.1 mm 5 mps 748 mmHg 66%
    21:00 -5°C° 0.3 mm 5 mps 748 mmHg 68%
    22:00 -5°C° 0.3 mm 6 mps 748 mmHg 70%
    23:00 -6°C° 0.3 mm 6 mps 748 mmHg 72%

    31 March, Sunday

    Time Temperature Precipitation Wind Pressure Humidity
    00:00 -6°C° 0.3 mm 6 mps 748 mmHg 74%
    01:00 -6°C° 0.3 mm 6 mps 748 mmHg 76%
    02:00 -6°C° 0.3 mm 6 mps 748 mmHg 78%
    03:00 -7°C° 0.2 mm 5 mps 748 mmHg 79%
    04:00 -7°C° 0.2 mm 5 mps 749 mmHg 80%
    05:00 -7°C° 0.2 mm 5 mps 749 mmHg 81%
    06:00 -7°C° 0.1 mm 5 mps 749 mmHg 80%
    07:00 -6°C° 0.1 mm 5 mps 750 mmHg 78%
    08:00 -5°C° 0.1 mm 4 mps 750 mmHg 77%
    09:00 -4°C° 0.1 mm 4 mps 750 mmHg 76%
    10:00 -4°C° 0.1 mm 4 mps 750 mmHg 75%
    11:00 -3°C° 0.1 mm 4 mps 750 mmHg 73%
    12:00 -2°C° 0.1 mm 4 mps 750 mmHg 71%
    13:00 -2°C° 0.1 mm 4 mps 750 mmHg 69%
    14:00 -1°C° 0.1 mm 4 mps 750 mmHg 66%
    15:00 -1°C° 0.1 mm 4 mps 750 mmHg 68%
    16:00 0°C° 0.1 mm 3 mps 751 mmHg 69%
    17:00 -1°C° 0.1 mm 3 mps 751 mmHg 70%
    18:00 -1°C° 0.1 mm 3 mps 751 mmHg 75%
    19:00 -2°C° 0.1 mm 2 mps 752 mmHg 80%
    20:00 -2°C° 0.1 mm 2 mps 752 mmHg 84%
    21:00 -3°C° 0 mm 2 mps 753 mmHg 85%
    22:00 -3°C° 0 mm 2 mps 753 mmHg 86%
    23:00 -4°C° 0 mm 3 mps 753 mmHg 87%
    Show more